Oceana NAS, VA

2:22 AM EDT on June 27, 2017 (GMT -0400)
Oceana Naval Air Station

Weather History for KNTU - November, 2012

Change the Weather History Date:

Friday, November 9, 2012

  Actual Average Record
Temperature  
Mean Temperature 47 °F -  
Max Temperature 55 °F 59 °F 79 °F (2005)
Min Temperature 39 °F 42 °F 33 °F (1996)
Degree Days  
Heating Degree Days 18    
Moisture  
Dew Point 35 °F    
Average Humidity 65    
Maximum Humidity 86    
Minimum Humidity 43    
Precipitation  
Precipitation 0.00 in - - ()
Sea Level Pressure  
Sea Level Pressure 30.18 in    
Wind  
Wind Speed 10 mph (NNW)    
Max Wind Speed 17 mph    
Max Gust Speed 26 mph    
Visibility 10 miles    
Events      
Averages and records for this station are not official NWS values.
T = Trace of Precipitation, MM = Missing Value Source: NWS Daily Summary

Daily Weather History Graph

Daily Weather History Graph

Search for Another Location

Airport or City:

Trip Planner

Search our weather history database for the weather conditions in past years. The results will help you decide how hot, cold, wet, or windy it might be!

Date:

Astronomy

Nov. 09, 2012 Rise Set
Actual Time 6:36 AM EST 4:58 PM EST
Civil Twilight 6:09 AM EST 5:26 PM EST
Nautical Twilight 5:38 AM EST 5:57 PM EST
Astronomical Twilight 5:07 AM EST 6:27 PM EST
Moon 1:39 AM EST (11/9) 2:04 PM EST (11/9)
Length of Visible Light 11h 17m
Length of Day
10h 22m
Waning Crescent, 23% of the Moon is Illuminated
Nov 9
Waning Crescent
Nov 13
New
Nov 20
First Quarter
Nov 28
Full
Dec 6
Last Quarter

Hourly Weather History & Observations

Time (EST) Temp. Windchill Dew Point Humidity Pressure Visibility Wind Dir Wind Speed Gust Speed Precip Events Conditions
12:56 AM 46.0 °F 39.9 °F 28.9 °F 51% 30.06 in 10.0 mi NW 13.8 mph - N/A   Clear
1:56 AM 44.1 °F 38.6 °F 30.0 °F 58% 30.07 in 10.0 mi NW 10.4 mph - N/A   Clear
2:56 AM 44.1 °F 38.1 °F 32.0 °F 63% 30.08 in 10.0 mi NW 11.5 mph - N/A   Clear
3:56 AM 45.0 °F 38.5 °F 33.1 °F 63% 30.10 in 10.0 mi NNW 13.8 mph - N/A   Clear
4:56 AM 43.0 °F 37.2 °F 33.1 °F 68% 30.12 in 10.0 mi NW 10.4 mph - N/A   Clear
5:56 AM 41.0 °F 35.2 °F 33.1 °F 73% 30.14 in 10.0 mi NW 9.2 mph - N/A   Clear
6:56 AM 44.1 °F 38.1 °F 34.0 °F 68% 30.16 in 10.0 mi NNW 11.5 mph - N/A   Clear
7:56 AM 46.9 °F - 34.0 °F 61% 30.19 in 10.0 mi NNW 17.3 mph - N/A   Clear
8:56 AM 48.9 °F - 34.0 °F 56% 30.20 in 10.0 mi NNW 17.3 mph 26.5 mph N/A   Clear
9:56 AM 50.0 °F - 34.0 °F 54% 30.22 in 10.0 mi NNW 15.0 mph 21.9 mph N/A   Clear
10:56 AM 51.1 °F - 36.0 °F 56% 30.22 in 10.0 mi NW 13.8 mph - N/A   Clear
11:56 AM 52.0 °F - 35.1 °F 53% 30.21 in 10.0 mi NW 12.7 mph - N/A   Clear
12:56 PM 53.1 °F - 30.9 °F 43% 30.19 in 10.0 mi NNW 12.7 mph - N/A   Clear
1:56 PM 54.0 °F - 35.1 °F 49% 30.19 in 10.0 mi NNW 8.1 mph - N/A   Clear
2:56 PM 55.0 °F - 36.0 °F 49% 30.19 in 10.0 mi NNW 8.1 mph - N/A   Clear
3:56 PM 55.0 °F - 37.0 °F 51% 30.19 in 10.0 mi NW 5.8 mph - N/A   Clear
4:56 PM 50.0 °F - 37.9 °F 63% 30.20 in 10.0 mi NNW 3.5 mph - N/A   Clear
5:56 PM 46.0 °F - 39.0 °F 76% 30.21 in 10.0 mi Calm Calm - N/A   Clear
6:56 PM 45.0 °F - 37.9 °F 76% 30.22 in 10.0 mi Calm Calm - N/A   Clear
7:56 PM 43.0 °F - 37.0 °F 80% 30.23 in 10.0 mi Calm Calm - N/A   Clear
8:56 PM 43.0 °F - 37.0 °F 80% 30.25 in 10.0 mi Calm Calm - N/A   Clear
9:56 PM 41.0 °F - 37.0 °F 86% 30.26 in 10.0 mi Calm Calm - N/A   Clear
10:56 PM 39.0 °F - 35.1 °F 86% 30.26 in 10.0 mi Calm Calm - N/A   Clear
11:56 PM 39.0 °F - 35.1 °F 86% 30.26 in 9.0 mi Calm Calm - N/A   Clear